Miscellaneous Local Product
Issued by NWS North Platte, NE

Home | Current Version | Previous Version | Text Only | Print | Product List | Glossary On
Versions: 1 2 3 4 5 6 7 8 9 10 11 12 13 14 15 16 17 18 19 20 21 22 23 24 25 26 27 28 29 30 31 32 33 34 35 36 37 38 39 40 41 42 43 44 45 46 47 48 49 50
000
AXUS43 KLBF 281510
MISLBF


WESTERN AND NORTH CENTRAL NEBRASKA HOURLY WEATHER ROUNDUP
NATIONAL WEATHER SERVICE NORTH PLATTE NE
1000 AM CDT FRI APR 28 2017

NOTE: "FAIR" INDICATES FEW OR NO CLOUDS BELOW 12,000 FEET WITH NO
SIGNIFICANT WEATHER AND/OR OBSTRUCTIONS TO VISIBILITY.

NOTE: STATIONS NOT REPORTING VARIABLES SUCH AS SKY/WEATHER OR
PRESSURE ARE PROVIDED BY RAWS AND APRS NETWORKS AND ARE NOT UNDER
NATIONAL WEATHER SERVICE QUALITY CONTROL.

...OBSERVATIONS IN AND NEAR THE EASTERN PANHANDLE OF NEBRASKA...

CITY           SKY/WX    TMP DP  RH WIND       PRES   REMARKS
PINE RIDGE     LGT SNOW  34  34 100 E15G21    29.83R FOG     WCI  24
CHADRON        LGT SNOW  34  32  92 E15       29.82R VSB 1   WCI  24
ALLIANCE       SNOW      33  31  92 E17       29.75R VSB 1/4 WCI  22
SIDNEY         SNOW      33  32  96 E8        29.71R VSB 1/2 WCI  26
CRESCENT LAKE    N/A     33  33 100 E10         N/A  WCI  25
$$

...OBSERVATIONS IN NORTHERN NEBRASKA AND FAR SOUTHERN SOUTH DAKOTA...

CITY           SKY/WX    TMP DP  RH WIND       PRES   REMARKS
WINNER         FAIR      42  31  64 E22G28    29.91R
VALENTINE      CLOUDY    41  27  57 E16       29.86R
THEDFORD       SNOW      34  33  98 E16       29.81R VSB 1/2 WCI  23
AINSWORTH      CLOUDY    38  32  81 E16       29.85R WCI  29
O`NEILL        CLOUDY    39  30  70 E12G18    29.87R WCI  31
ORD            LGT SNOW  33  31  92 NE15      29.79R FOG     WCI  23
BROKEN BOW     LGT SNOW  34  33  96 NE15      29.76R FOG     WCI  24
VALENTINE NWR    N/A     50  31  49 E13         N/A
BUTTE            N/A     37  30  75 N12         N/A  WCI  29
CHAMBERS         N/A     34  33  96 E3          N/A
EWING            N/A     33  30  90 NE10        N/A  WCI  25
$$

...OBSERVATIONS IN SOUTHWEST NEBRASKA AND FAR NORTHEAST COLORADO...

CITY           SKY/WX    TMP DP  RH WIND       PRES   REMARKS
HOLYOKE        DRIZZLE   37  36  93 E10       29.72R WCI  30
IMPERIAL       LGT RAIN  37  35  92 NE13      29.72R WCI  29
OGALLALA       LGT SNOW  35  34  96 NE13      29.74R WCI  26
NORTH PLATTE   MIX PCPN  36  34  92 NE14      29.74R FOG     WCI  27
MCCOOK         LGT RAIN  44  43  96 N18       29.67R FOG
LEXINGTON      LGT RAIN  39  37  91 NE20G25   29.71R WCI  30
STAPLETON        N/A     32  32  99 E6          N/A  WCI  26
GOTHENBURG       N/A     36  34  91 NE9         N/A  WCI  29
CALLAWAY         N/A     33  31  93 NE8         N/A  WCI  26
$$

...OBSERVATIONS IN CENTRAL LINCOLN COUNTY AREA...

CITY           SKY/WX    TMP DP  RH WIND       PRES   REMARKS
N.P. AIRPORT   MIX PCPN  36  34  92 NE14      29.74R FOG     WCI  27
N.P. DOWNTOWN    N/A     34  32  94 NE12G20     N/A  WCI  25
N.P. SOUTHEAST   N/A     34  32  93 NE6G14      N/A  WCI  29
N.P. HILLCREST   N/A     33  32  97 E20         N/A  WCI  21
$$

...SOME OBSERVATIONS FROM AROUND THE REGION...

CITY           SKY/WX    TMP DP  RH WIND       PRES   REMARKS
DENVER         MOSUNNY   47  15  27 NW3       29.66R
LIMON          SUNNY     46  23  40 NW6       29.68R
ASPEN          FLURRIES  26  23  88 S3        29.73F
LARAMIE        CLOUDY    34  19  54 SW16      29.66R WCI  24
CASPER         LGT SNOW  31  30  96 N17       29.73S VSB 3/4 WCI  19
CHEYENNE       CLOUDY    38  23  55 NW7       29.67R WCI  33
SCOTTSBLUFF    LGT SNOW  34  32  92 E8        29.73R VSB 3/4 WCI  27
GRAND ISLAND   RAIN      37  37 100 NE22G31   29.74R FOG     WCI  26
OMAHA          LGT RAIN  39  33  79 NE17G23   29.80F WCI  30
SIOUX FALLS    CLOUDY    40  32  73 NE9       29.91F WCI  34
PIERRE         CLOUDY    40  26  57 E21       29.93R WCI  30
RAPID CITY     CLOUDY    39  30  70 NE10      29.89R WCI  32
BISMARCK       SUNNY     43  25  49 N6        30.02R
KANSAS CITY    CLOUDY    53  51  93 E12       29.67S
HILL CITY      PTSUNNY   51  45  79 W12       29.64R
WICHITA        PTSUNNY   60  55  83 S12       29.63F
DODGE CITY     SUNNY     54  41  61 NW13      29.67R
OKLAHOMA CITY  PTSUNNY   65  58  78 S13       29.61R
DALLAS         CLOUDY    75  66  73 S13       29.62R
AMARILLO       SUNNY     59  43  55 NW9       29.69S
$$




USA.gov is the U.S. government's official web portal to all federal, state and local government web resources and services.